GMART KAAA-KSPI

Flight info

Callsign GMART
Flight time 0h 18m
Altitude 2100
Route KAAA/ BROADWELL / WILLAMSVILLE / KSPI
Aircraft C172/L-VGD/C

Departure

Time 2026-04-24 08:35
Airport Logan County Airport (KAAA)

Arrival

Time 2026-04-24 08:54
Airport Abraham Lincoln Capital Airport (KSPI)
Time Latitude Longitude Altitude Speed Heading
2026-04-24 08:25 40.15949 -89.33641 597 ft 0 kts 65°
2026-04-24 08:25 40.15986 -89.33664 597 ft 0 kts 65°
2026-04-24 08:26 40.15998 -89.33630 597 ft 0 kts 233°
2026-04-24 08:30 40.15984 -89.33643 597 ft 8 kts 198°
2026-04-24 08:30 40.15928 -89.33639 597 ft 9 kts 135°
2026-04-24 08:31 40.15904 -89.33596 597 ft 0 kts 123°
2026-04-24 08:31 40.15898 -89.33585 597 ft 4 kts 124°
2026-04-24 08:32 40.15893 -89.33577 597 ft 0 kts 124°
2026-04-24 08:32 40.15892 -89.33574 597 ft 4 kts 126°
2026-04-24 08:33 40.15863 -89.33517 596 ft 8 kts 149°
2026-04-24 08:33 40.15843 -89.33525 596 ft 0 kts 217°
2026-04-24 08:34 40.15767 -89.33596 596 ft 38 kts 216°
2026-04-24 08:34 40.15422 -89.33907 631 ft 75 kts 214°
2026-04-24 08:34 40.14947 -89.34269 780 ft 84 kts 214°
2026-04-24 08:34 40.14418 -89.34696 894 ft 95 kts 215°
2026-04-24 08:35 40.13814 -89.35173 1008 ft 106 kts 216°
2026-04-24 08:35 40.13216 -89.35736 1134 ft 106 kts 229°
2026-04-24 08:35 40.12674 -89.36430 1262 ft 110 kts 228°
2026-04-24 08:35 40.12127 -89.37122 1431 ft 108 kts 227°
2026-04-24 08:36 40.11599 -89.37805 1612 ft 105 kts 228°
2026-04-24 08:36 40.11084 -89.38469 1780 ft 103 kts 228°
2026-04-24 08:36 40.10574 -89.39125 1953 ft 103 kts 228°
2026-04-24 08:36 40.10063 -89.39787 2097 ft 107 kts 230°
2026-04-24 08:37 40.09517 -89.40522 2101 ft 119 kts 230°
2026-04-24 08:37 40.08927 -89.41330 2106 ft 123 kts 231°
2026-04-24 08:37 40.08355 -89.42108 2107 ft 119 kts 230°
2026-04-24 08:37 40.07788 -89.42880 2106 ft 116 kts 230°
2026-04-24 08:38 40.07227 -89.43635 2105 ft 115 kts 230°
2026-04-24 08:38 40.06662 -89.44388 2107 ft 117 kts 230°
2026-04-24 08:38 40.06061 -89.45110 2107 ft 118 kts 222°
2026-04-24 08:38 40.05370 -89.45713 2103 ft 119 kts 218°
2026-04-24 08:39 40.04692 -89.46312 2100 ft 116 kts 220°
2026-04-24 08:39 40.04047 -89.46913 2098 ft 108 kts 219°
2026-04-24 08:39 40.03504 -89.47408 2087 ft 81 kts 220°
2026-04-24 08:39 40.03087 -89.47774 2085 ft 66 kts 219°
2026-04-24 08:40 40.02706 -89.48113 2088 ft 66 kts 220°
2026-04-24 08:40 40.02336 -89.48436 2088 ft 62 kts 220°
2026-04-24 08:40 40.01976 -89.48726 2091 ft 61 kts 219°
2026-04-24 08:40 40.01604 -89.49033 2094 ft 67 kts 220°
2026-04-24 08:41 40.01201 -89.49403 2113 ft 78 kts 220°
2026-04-24 08:41 40.00719 -89.49865 2114 ft 93 kts 220°
2026-04-24 08:41 40.00163 -89.50388 2111 ft 103 kts 220°
2026-04-24 08:41 39.99581 -89.50948 2112 ft 105 kts 221°
2026-04-24 08:42 39.98995 -89.51494 2109 ft 102 kts 220°
2026-04-24 08:42 39.98426 -89.52013 2108 ft 97 kts 220°
2026-04-24 08:42 39.97888 -89.52516 2106 ft 94 kts 220°
2026-04-24 08:42 39.97357 -89.53005 2100 ft 93 kts 220°
2026-04-24 08:43 39.96826 -89.53483 2094 ft 91 kts 220°
2026-04-24 08:43 39.96727 -89.53570 2092 ft 90 kts 220°
2026-04-24 08:43 39.96286 -89.53956 2089 ft 83 kts 221°
2026-04-24 08:44 39.95834 -89.54403 2092 ft 80 kts 223°
2026-04-24 08:44 39.95397 -89.54829 2093 ft 78 kts 223°
2026-04-24 08:44 39.94943 -89.55284 2094 ft 86 kts 223°
2026-04-24 08:44 39.94467 -89.55766 2101 ft 88 kts 223°
2026-04-24 08:45 39.93967 -89.56266 2109 ft 93 kts 224°
2026-04-24 08:45 39.93445 -89.56782 2110 ft 95 kts 223°
2026-04-24 08:45 39.92915 -89.57316 2108 ft 97 kts 223°
2026-04-24 08:45 39.92376 -89.57853 2107 ft 96 kts 222°
2026-04-24 08:46 39.91863 -89.58364 2104 ft 90 kts 222°
2026-04-24 08:46 39.91375 -89.58849 2099 ft 86 kts 223°
2026-04-24 08:46 39.90920 -89.59288 2093 ft 79 kts 223°
2026-04-24 08:46 39.90481 -89.59705 2092 ft 79 kts 223°
2026-04-24 08:47 39.90032 -89.60154 2090 ft 83 kts 223°
2026-04-24 08:47 39.89570 -89.60614 2094 ft 84 kts 223°
2026-04-24 08:47 39.89108 -89.61086 2096 ft 84 kts 223°
2026-04-24 08:47 39.88645 -89.61559 2098 ft 85 kts 223°
2026-04-24 08:48 39.88178 -89.62026 2098 ft 84 kts 223°
2026-04-24 08:48 39.87723 -89.62484 2091 ft 81 kts 224°
2026-04-24 08:48 39.87280 -89.62921 2093 ft 79 kts 223°
2026-04-24 08:48 39.86846 -89.63349 2090 ft 78 kts 223°
2026-04-24 08:49 39.86411 -89.63788 1998 ft 80 kts 227°
2026-04-24 08:49 39.86411 -89.64394 1862 ft 75 kts 308°
2026-04-24 08:49 39.86691 -89.64938 1736 ft 72 kts 297°
2026-04-24 08:49 39.86961 -89.65499 1622 ft 74 kts 297°
2026-04-24 08:50 39.87231 -89.66058 1610 ft 72 kts 297°
2026-04-24 08:50 39.87494 -89.66597 1608 ft 71 kts 297°
2026-04-24 08:50 39.87760 -89.67142 1605 ft 71 kts 297°
2026-04-24 08:50 39.88024 -89.67686 1607 ft 71 kts 297°
2026-04-24 08:51 39.88300 -89.68257 1541 ft 77 kts 297°
2026-04-24 08:51 39.88586 -89.68871 1485 ft 82 kts 297°
2026-04-24 08:51 39.88687 -89.69567 1415 ft 84 kts 240°
2026-04-24 08:51 39.88174 -89.69926 1345 ft 84 kts 209°
2026-04-24 08:52 39.87653 -89.70197 1268 ft 78 kts 208°
2026-04-24 08:52 39.87155 -89.70467 1188 ft 78 kts 209°
2026-04-24 08:52 39.86643 -89.70712 1140 ft 79 kts 201°
2026-04-24 08:52 39.86132 -89.70711 1160 ft 75 kts 169°
2026-04-24 08:53 39.85758 -89.70233 1016 ft 76 kts 122°
2026-04-24 08:53 39.85495 -89.69677 845 ft 67 kts 142°
2026-04-24 08:53 39.85225 -89.69218 713 ft 62 kts 128°
2026-04-24 08:53 39.84973 -89.68788 615 ft 58 kts 124°
2026-04-24 08:54 39.84750 -89.68404 593 ft 49 kts 130°
2026-04-24 08:54 39.84571 -89.68105 595 ft 36 kts 125°
2026-04-24 08:54 39.84444 -89.67876 597 ft 23 kts 124°
2026-04-24 08:54 39.84357 -89.67730 598 ft 19 kts 117°
2026-04-24 08:55 39.84359 -89.67624 597 ft 11 kts 28°
2026-04-24 08:55 39.84417 -89.67566 596 ft 11 kts 40°
2026-04-24 08:55 39.84486 -89.67480 594 ft 16 kts 41°
2026-04-24 08:55 39.84574 -89.67379 595 ft 18 kts 43°
2026-04-24 08:56 39.84672 -89.67265 595 ft 20 kts 44°
2026-04-24 08:56 39.84760 -89.67164 598 ft 10 kts 53°
2026-04-24 08:56 39.84739 -89.67095 596 ft 10 kts 143°
2026-04-24 08:56 39.84697 -89.67024 594 ft 10 kts 85°
2026-04-24 08:57 39.84679 -89.66946 593 ft 10 kts 159°
2026-04-24 08:57 39.84657 -89.66963 593 ft 0 kts 264°
2026-04-24 08:57 39.84659 -89.66972 593 ft 0 kts 306°